SCP
0 0 0 0 0 0 0 0 0 0 0 0 0 0 0 0 0 0 0 0 0 0 0 0 0 0 0 0 0 0 0 0 0 0 0 0 0 0 0 0 0 0 0
0 0 0 0 0 0 0 0 0 0 0 0 0 0 0 0 0 0 0 0 0 0 0 0 0 0 0 0 0 0 0 0 0 0 0 0 0 0 0 0 0 0 0
0 0 0 0 0 0 0 0 0 0 0 0 0 0 0 0 0 0 0 0 0 0 0 0 0 0 0 0 0 0 0 0 0 0 0 0 0 0 0 0 0 0 0
0 0 0 0 0 0 0 0 0 0 0 0 0 0 0 0 0 0 0 0 0 0 0 0 0 0 0 0 0 0 0 0 0 0 0 0 0 0 0 0 0 0 0
0 0 0 0 0 0 0 0 0 0 0 0 0 0 0 0 0 0 0 0 0 0 0 0 0 0 0 0 0 0 0 0 0 0 0 0 0 0 0 0 0 0 0
0 0 0 0 0 0 0 0 0 0 0 0 0 0 0 0 0 0 0 0 0 0 0 0 0 0 0 0 0 0 0 0 0 0 0 0 0 0 0 0 0 0 0
0 0 0 0 0 0 0 0 0 0 0 0 0 0 0 0 0 0 0 0 0 0 0 0 0 0 0 0 0 0 0 0 0 0 0 0 0 0 0 0 0 0 0
0 0 0 0 0 0 0 0 0 0 0 0 0 0 0 0 0 0 0 0 0 0 0 0 0 0 0 0 0 0 0 0 0 0 0 0 0 0 0 0 0 0 0
0 0 0 0 0 0 0 0 0 0 0 0 0 0 0 0 0 0 0 0 0 0 0 0 0 0 0 0 0 0 0 0 0 0 0 0 0 0 0 0 0 0 0
0 0 0 0 0 0 0 0 0 0 0 0 0 0 0 0 0 0 0 0 0 0 0 0 0 0 0 0 0 0 0 0 0 0 0 0 0 0 0 0 0 0 0
0 0 0 0 0 0 0 0 0 0 0 0 0 0 0 0 0 0 0 0 0 0 0 0 0 0 0 0 0 0 0 0 0 0 0 0 0 0 0 0 0 0 0
0 0 0 0 0 0 0 0 0 0 0 0 0 0 0 0 0 0 0 0 0 0 0 0 0 0 0 0 0 0 0 0 0 0 0 0 0 0 0 0 0 0 0
0 0 0 0 0 0 0 0 0 0 0 0 0 0 0 0 0 0 0 0 0 0 0 0 0 0 0 0 0 0 0 0 0 0 0 0 0 0 0 0 0 0 0
0 0 0 0 0 0 0 0 0 0 0 0 0 0 0 0 0 0 0 0 0 0 0 0 0 0 0 0 0 0 0 0 0 0 0 0 0 0 0 0 0 0 0
0 0 0 0 0 0 0 0 0 0 0 0 0 0 0 0 0 0 0 0 0 0 0 0 0 0 0 0 0 0 0 0 0 0 0 0 0 0 0 0 0 0 0
0 0 0 0 0 0 0 0 0 0 0 0 0 0 0 0 0 0 0 0 0 0 0 0 0 0 0 0 0 0 0 0 0 0 0 0 0 0 0 0 0 0 0
0 0 0 0 0 0 0 0 0 0 0 0 0 0 0 0 0 0 0 0 0 0 0 0 0 0 0 0 0 0 0 0 0 0 0 0 0 0 0 0 0 0 0
0 0 0 0 0 0 0 0 0 0 0 0 0 0 0 0 0 0 0 0 0 0 0 0 0 0 0 0 0 0 0 0 0 0 0 0 0 0 0 0 0 0 0
0 0 0 0 0 0 0 0 0 0 0 0 0 0 0 0 0 0 0 0 0 0 0 0 0 0 0 0 0 0 0 0 0 0 0 0 0 0 0 0 0 0 0
0 0 0 0 0 0 0 0 0 0 0 0 0 0 0 0 0 0 0 0 0 0 0 0 0 0 0 0 0 0 0 0 0 0 0 0 0 0 0 0 0 0 0
0 0 0 0 0 0 0 0 0 0 0 0 0 0 0 0 0 0 0 0 0 0 0 0 0 0 0 0 0 0 0 0 0 0 0 0 0 0 0 0 0 0 0
0 0 0 0 0 0 0 0 0 0 0 0 0 0 0 0 0 0 0 0 0 0 0 0 0 0 0 0 0 0 0 0 0 0 0 0 0 0 0 0 0 0 0
0 0 0 0 0 0 0 0 0 0 0 0 0 0 0 0 0 0 0 0 0 0 0 0 0 0 0 0 0 0 0 0 0 0 0 0 0 0 0 0 0 0 0
0 0 0 0 0 0 0 0 0 0 0 0 0 0 0 0 0 0 0 0 0 0 0 0 0 0 0 0 0 0 0 0 0 0 0 0 0 0 0 0 0 0 0
0 0 0 0 0 0 0 0 0 0 0 0 0 0 0 0 0 0 0 0 0 0 0 0 0 0 0 0 0 0 0 0 0 0 0 0 0 0 0 0 0 0 0
0 0 0 0 0 0 0 0 0 0 0 0 0 0 0 0 0 0 0 0 0 0 0 0 0 0 0 0 0 0 0 0 0 0 0 0 0 0 0 0 0 0 0
Wind_Speed
1 1 1 1 1 1 1 1 1 1 2 2 2 2 2 2 2 2 2 2 3 3 3 3 3 3 2 2 2 2 3 3 5 5 3 3 3 4 4 4 4 4 5
1 1 1 1 1 1 1 1 1 1 2 2 2 2 2 2 2 2 3 3 3 4 4 3 4 2 3 2 2 3 3 3 4 6 4 3 4 4 4 4 4 4 4
1 1 1 1 1 1 1 1 1 1 2 1 2 2 2 2 2 3 3 3 3 4 4 4 4 3 4 3 3 3 3 3 3 4 5 4 3 3 3 4 4 4 4
2 1 1 1 1 1 1 1 1 1 1 1 1 2 2 2 2 3 2 3 3 3 4 4 4 4 4 4 3 4 3 3 3 4 4 3 3 3 2 3 5 4 4
1 1 2 2 2 2 1 1 2 1 1 1 1 2 2 2 2 2 2 3 3 3 3 3 4 4 4 4 3 3 3 3 3 4 4 3 3 3 3 3 5 4 5
2 2 2 2 2 1 1 1 2 2 1 1 2 2 2 2 3 4 3 3 3 3 4 3 3 3 4 5 5 5 5 5 5 4 4 5 5 4 3 3 4 4 5
2 2 2 2 2 2 2 1 1 2 2 2 2 2 3 3 4 4 4 2 3 3 4 3 3 3 3 3 5 6 6 6 6 5 6 6 5 5 4 4 4 4 6
2 2 2 2 2 2 2 2 2 2 2 2 2 2 3 4 5 5 4 3 3 3 4 4 3 3 3 4 3 4 4 5 5 4 5 6 5 4 5 5 5 5 4
2 3 3 3 2 2 2 3 2 2 2 2 2 2 3 4 5 5 4 2 3 4 4 3 4 4 6 5 3 4 5 5 5 6 7 7 7 6 4 2 2 2 4
3 3 3 3 3 3 3 3 3 2 3 3 3 2 3 3 5 5 4 2 3 3 3 4 5 5 6 5 4 4 5 5 3 4 5 6 5 4 4 3 3 3 3
3 3 3 3 3 3 3 3 2 2 2 3 3 3 3 3 4 5 5 2 3 3 3 3 4 6 6 6 5 4 6 4 3 3 3 3 3 2 3 3 3 3 3
3 3 3 3 3 2 2 3 2 2 2 2 3 3 2 2 3 5 6 5 4 3 4 3 4 6 7 7 5 5 5 3 1 2 2 3 3 3 3 3 4 4 4
4 4 4 4 3 2 2 2 2 2 2 2 2 3 3 2 4 6 6 6 6 4 4 6 7 7 6 5 6 6 3 2 2 2 3 4 3 3 2 2 3 3 3
4 4 4 3 3 3 2 2 2 2 2 3 3 3 3 3 3 3 3 3 4 4 4 4 6 6 4 4 3 3 2 2 3 3 3 3 2 2 2 2 2 2 2
4 4 4 3 3 3 3 2 3 3 3 3 3 3 3 4 5 6 4 3 2 3 2 2 2 2 2 2 2 2 2 2 3 3 2 2 2 2 2 2 2 2 2
4 3 3 3 3 3 3 4 6 5 7 7 7 5 5 7 8 8 7 7 5 4 1 2 2 2 3 3 3 3 3 3 3 3 2 3 3 3 3 2 2 2 3
4 4 3 3 3 3 3 3 5 6 7 8 8 9 8 9 9 9 8 7 5 3 2 2 3 3 3 3 3 3 3 3 2 3 3 3 3 3 2 2 2 2 3
4 4 3 3 3 3 3 3 4 4 6 6 7 10 10 10 9 9 7 5 3 2 2 3 3 3 3 3 3 3 3 3 3 3 3 3 3 3 3 3 3 3 3
3 3 3 3 3 3 3 4 4 4 5 5 5 6 8 9 8 7 4 2 2 3 3 3 3 3 3 3 3 3 3 3 3 3 3 3 3 3 3 3 3 4 3
3 4 3 3 3 3 3 3 4 4 4 5 5 5 4 4 3 4 2 2 3 3 3 4 3 3 3 3 3 3 3 4 3 3 3 3 3 3 4 4 3 3 3
3 3 4 3 3 3 3 4 4 4 5 5 5 6 9 4 4 4 4 3 4 4 4 4 4 3 3 3 3 4 4 4 3 3 3 3 3 3 3 3 3 3 3
3 3 3 3 3 3 4 4 4 5 5 6 5 6 10 5 4 4 4 4 4 4 4 4 4 4 4 4 4 4 4 4 3 3 3 3 3 3 3 3 3 3 3
3 4 4 4 3 4 5 4 4 5 5 5 5 5 5 5 5 5 5 5 4 4 3 3 4 4 3 3 3 3 4 4 3 3 3 3 3 3 3 3 4 3 3
3 4 4 4 4 4 4 5 5 5 5 5 5 5 5 5 5 6 5 5 4 4 4 4 4 5 6 4 3 3 3 3 3 3 4 4 4 3 3 3 4 4 4
3 4 4 4 4 4 5 5 5 5 5 6 6 6 5 5 5 5 5 5 5 5 5 5 4 5 6 7 6 5 5 6 5 4 3 4 4 4 4 4 4 4 4
3 4 4 4 4 4 5 5 5 6 6 6 6 6 6 6 6 5 5 5 5 5 5 5 5 6 6 5 6 6 6 7 6 6 4 4 4 4 4 4 5 4 4
Wind_Direction
19 6 329 298 286 278 254 247 254 264 238 228 231 232 230 229 227 218 224 217 225 223 220 218 232 230 230 229 226 228 236 232 253 274 283 289 274 277 283 279 271 265 272
360 359 339 341 323 292 278 272 256 255 259 244 228 230 233 232 229 222 228 225 222 226 222 221 232 235 237 237 230 236 245 245 245 266 283 292 285 276 278 280 281 277 274
358 354 352 342 325 302 300 307 290 263 262 259 242 227 229 236 238 234 231 229 230 233 223 221 228 226 237 244 242 243 251 261 257 260 274 283 290 295 301 298 288 283 284
346 346 339 328 320 317 318 320 304 278 268 263 257 252 243 243 247 241 237 235 237 243 228 221 222 220 228 232 236 241 249 259 263 266 272 282 288 290 284 293 298 292 291
333 331 322 330 334 337 336 326 318 302 285 276 270 261 260 247 246 252 241 235 237 248 241 226 226 234 239 237 240 241 240 245 255 260 266 276 279 283 273 277 282 295 288
322 319 327 333 334 335 329 323 314 305 292 276 263 256 254 263 264 262 266 243 240 244 247 240 237 234 244 253 259 255 246 239 245 249 259 262 268 273 279 281 287 299 287
323 323 324 322 321 316 312 315 298 291 288 274 271 263 265 271 268 265 265 261 248 248 248 238 241 241 233 245 260 265 260 259 248 235 248 257 266 262 261 270 266 271 271
328 323 323 325 320 317 313 302 302 299 280 275 280 277 277 276 273 275 275 262 255 259 253 235 233 233 241 251 253 260 264 263 261 252 247 256 261 263 249 252 262 273 282
328 325 326 325 314 311 306 302 301 296 289 281 277 275 273 278 275 276 281 266 262 267 265 245 237 235 252 255 242 253 270 276 275 272 280 286 287 280 275 269 275 274 283
323 324 325 322 310 303 302 300 303 298 293 297 293 282 275 276 277 280 279 267 266 273 272 253 244 252 260 245 230 237 256 269 279 286 286 288 284 276 265 234 231 249 280
332 331 329 325 317 315 315 312 309 301 300 299 297 295 284 280 281 284 282 272 260 269 271 268 255 257 256 248 247 243 261 279 263 263 276 278 277 270 265 259 246 236 244
337 331 327 324 319 319 316 314 312 304 296 294 297 300 296 291 291 289 283 279 284 264 267 274 271 258 256 253 254 273 279 276 256 256 266 269 266 260 262 259 254 251 247
334 329 326 328 325 322 311 308 307 296 288 290 289 291 297 297 288 290 287 283 284 280 271 275 281 267 258 254 261 272 272 252 247 253 255 260 263 266 272 273 267 265 273
319 319 322 323 323 326 315 300 289 284 281 282 283 288 293 296 293 295 289 280 281 283 285 283 280 275 266 272 274 266 254 241 239 247 261 267 274 265 248 245 256 269 282
311 313 315 313 311 311 308 293 284 273 275 281 276 275 280 283 285 294 299 288 280 275 286 291 288 287 270 282 286 274 262 252 246 252 254 263 260 256 256 248 242 238 253
310 312 309 309 309 308 310 310 299 292 297 292 290 291 286 293 298 293 291 289 286 286 269 262 267 261 259 260 261 265 260 253 252 247 247 248 251 250 252 244 237 232 247
297 302 304 304 304 305 306 304 308 312 307 302 300 301 301 305 303 300 296 291 283 276 253 258 260 258 260 264 263 258 257 254 247 246 249 247 249 248 244 243 240 241 250
291 293 295 297 300 299 299 298 296 301 308 308 307 304 307 306 304 306 303 294 283 274 263 261 263 262 260 260 263 266 264 252 245 246 245 246 243 242 242 242 239 237 245
285 288 294 297 297 295 296 296 294 291 291 297 306 309 309 307 305 308 309 275 268 273 273 272 269 267 267 263 263 265 264 258 250 241 240 239 234 234 242 243 244 244 240
282 286 292 290 292 293 292 291 291 292 292 293 296 301 309 308 298 299 285 273 269 271 270 268 266 263 262 263 266 267 267 266 255 245 244 239 235 234 241 241 239 240 240
284 283 283 282 278 281 284 284 286 287 287 289 290 292 302 295 285 283 279 273 267 269 272 273 272 270 267 265 264 265 267 267 262 259 254 245 238 239 241 239 238 236 237
285 282 281 277 280 283 283 282 281 281 282 285 291 295 298 294 283 279 276 275 270 266 266 266 267 263 260 261 261 260 260 263 264 261 258 254 245 242 240 237 238 239 234
283 284 285 281 280 282 282 277 276 276 278 281 285 289 289 285 282 282 281 280 279 276 273 268 270 271 265 259 254 251 256 260 258 252 252 253 247 240 238 235 230 230 232
279 276 279 281 280 277 277 278 278 278 280 283 283 283 283 284 281 284 285 285 283 278 273 271 270 269 268 266 262 256 255 259 255 244 236 239 241 239 233 234 232 228 227
278 275 274 275 276 276 278 279 279 279 280 280 282 283 283 284 283 284 285 286 285 281 278 273 270 270 266 264 264 262 261 260 256 247 234 229 231 232 229 229 231 227 222
280 277 276 275 273 273 275 277 278 280 280 281 281 281 282 282 283 284 285 284 285 284 283 278 273 272 271 268 264 264 263 263 256 246 233 224 222 226 221 222 221 223 218